| time (UTC) | temp F | wind direction | speed knots | gust knots | rain 1hr in | rain 24hr in | rain mn in | humidity % | barometer mb |
| 20260506044503 | 51 | 255 | 0.9 | 3.5 | 0.00 | 0.06 | 0.00 | 93 | 1007.3 |
| 20260506043603 | 51 | 280 | 0.0 | 3.5 | 0.00 | 0.06 | 0.00 | 92 | 1007.4 |
| 20260506042703 | 51 | 315 | 0.0 | 3.5 | 0.00 | 0.06 | 0.00 | 93 | 1007.6 |
| 20260506041803 | 51 | 340 | 0.0 | 3.5 | 0.00 | 0.06 | 0.00 | 94 | 1007.5 |
| 20260506040903 | 51 | 37 | 1.7 | 3.5 | 0.00 | 0.06 | 0.00 | 95 | 1007.7 |
| 20260506040003 | 51 | 21 | 0.9 | 3.5 | 0.00 | 0.06 | 0.00 | 95 | 1007.4 |
| 20260506035403 | 51 | 341 | 0.0 | 3.5 | 0.00 | 0.06 | 0.00 | 95 | 1007.6 |
| 20260506034503 | 51 | 354 | 0.9 | 3.5 | 0.00 | 0.06 | 0.00 | 94 | 1007.6 |
| 20260506033603 | 51 | 273 | 1.7 | 3.5 | 0.00 | 0.06 | 0.00 | 93 | 1007.6 |
| 20260506032704 | 52 | 249 | 0.9 | 3.5 | 0.00 | 0.06 | 0.00 | 92 | 1007.3 |
| 20260506031803 | 52 | 247 | 1.7 | 3.5 | 0.00 | 0.06 | 0.00 | 93 | 1007.3 |
| 20260506030903 | 52 | 269 | 0.9 | 3.5 | 0.00 | 0.06 | 0.00 | 92 | 1007.3 |
| 20260506030003 | 52 | 263 | 1.7 | 3.5 | 0.00 | 0.06 | 0.00 | 92 | 1007.4 |
| 20260506025403 | 52 | 274 | 0.9 | 5.2 | 0.00 | 0.06 | 0.00 | 92 | 1007.4 |
| 20260506024503 | 53 | 264 | 3.5 | 7.0 | 0.00 | 0.06 | 0.00 | 91 | 1007.3 |
| 20260506023603 | 53 | 263 | 1.7 | 5.2 | 0.00 | 0.06 | 0.00 | 91 | 1007.1 |
| 20260506022703 | 53 | 281 | 1.7 | 7.0 | 0.00 | 0.06 | 0.00 | 91 | 1007.5 |
| 20260506021803 | 53 | 272 | 4.3 | 6.1 | 0.00 | 0.06 | 0.00 | 91 | 1007.6 |
| 20260506020903 | 53 | 285 | 2.6 | 5.2 | 0.00 | 0.06 | 0.00 | 93 | 1007.5 |
| 20260506020004 | 53 | 288 | 1.7 | 3.5 | 0.00 | 0.06 | 0.00 | 93 | 1007.7 |
| 20260506015403 | 53 | 282 | 0.9 | 3.5 | 0.00 | 0.06 | 0.00 | 94 | 1007.5 |
| 20260506014503 | 53 | 302 | 0.9 | 1.7 | 0.00 | 0.06 | 0.00 | 93 | 1007.6 |
| 20260506013603 | 53 | 304 | 0.9 | 3.5 | 0.00 | 0.06 | 0.00 | 94 | 1007.8 |
| 20260506012703 | 53 | 262 | 0.9 | 1.7 | 0.00 | 0.06 | 0.00 | 97 | 1007.7 |
| 20260506011803 | 53 | 250 | 0.0 | 1.7 | 0.00 | 0.06 | 0.00 | 97 | 1007.8 |
| 20260506010903 | 53 | 180 | 0.0 | 3.5 | 0.00 | 0.06 | 0.00 | 96 | 1007.9 |
| 20260506010003 | 53 | 234 | 0.9 | 1.7 | 0.00 | 0.06 | 0.00 | 96 | 1007.7 |
| 20260506005403 | 53 | 292 | 0.9 | 1.7 | 0.00 | 0.06 | 0.00 | 96 | 1007.9 |
| 20260506004503 | 53 | 247 | 0.0 | 1.7 | 0.00 | 0.06 | 0.00 | 96 | 1007.8 |
| 20260506003603 | 53 | 222 | 0.9 | 1.7 | 0.00 | 0.06 | 0.00 | 95 | 1007.7 |
| 20260506002703 | 54 | 243 | 0.9 | 1.7 | 0.00 | 0.06 | 0.00 | 94 | 1007.9 |
| 20260506001803 | 54 | 264 | 0.0 | 1.7 | 0.00 | 0.06 | 0.00 | 94 | 1008.0 |
| 20260506000903 | 54 | 292 | 0.0 | 1.7 | 0.00 | 0.06 | 0.00 | 94 | 1007.9 |
| 20260506000003 | 54 | 211 | 0.0 | 1.7 | 0.00 | 0.06 | 0.00 | 94 | 1008.3 |
| 20260505235403 | 54 | 169 | 0.9 | 1.7 | 0.00 | 0.06 | 0.00 | 94 | 1008.2 |
| 20260505234503 | 54 | 275 | 0.0 | 1.7 | 0.00 | 0.06 | 0.00 | 95 | 1008.4 |
| 20260505233603 | 53 | 238 | 0.9 | 1.7 | 0.00 | 0.06 | 0.00 | 95 | 1008.5 |
| 20260505232703 | 54 | 261 | 0.0 | 3.5 | 0.00 | 0.06 | 0.00 | 95 | 1008.2 |
| 20260505231803 | 54 | 269 | 1.7 | 3.5 | 0.00 | 0.06 | 0.00 | 95 | 1008.1 |
| 20260505230903 | 54 | 225 | 0.9 | 1.7 | 0.00 | 0.06 | 0.00 | 95 | 1008.1 |
| 20260505230003 | 54 | 225 | 0.0 | 1.7 | 0.00 | 0.06 | 0.00 | 95 | 1008.0 |
| 20260505225403 | 54 | 225 | 0.9 | 1.7 | 0.00 | 0.06 | 0.06 | 95 | 1008.1 |
| 20260505224503 | 54 | 225 | 0.0 | 1.7 | 0.00 | 0.06 | 0.06 | 94 | 1008.4 |
| 20260505223603 | 54 | 241 | 0.9 | 1.7 | 0.00 | 0.06 | 0.06 | 94 | 1008.2 |
| 20260505222703 | 54 | 273 | 1.7 | 6.1 | 0.00 | 0.06 | 0.06 | 93 | 1008.1 |
| 20260505221803 | 54 | 267 | 2.6 | 6.1 | 0.00 | 0.06 | 0.06 | 93 | 1008.2 |
| 20260505220903 | 54 | 274 | 2.6 | 3.5 | 0.00 | 0.06 | 0.06 | 95 | 1008.2 |
| 20260505220003 | 54 | 277 | 0.9 | 3.5 | 0.00 | 0.06 | 0.06 | 95 | 1008.1 |
| 20260505215403 | 54 | 275 | 1.7 | 3.5 | 0.00 | 0.06 | 0.06 | 96 | 1008.1 |
| 20260505214503 | 54 | 271 | 1.7 | 3.5 | 0.00 | 0.06 | 0.06 | 96 | 1008.0 |
| 20260505213603 | 54 | 283 | 1.7 | 3.5 | 0.00 | 0.06 | 0.06 | 96 | 1008.1 |
| 20260505212703 | 54 | 271 | 1.7 | 5.2 | 0.00 | 0.06 | 0.06 | 96 | 1008.3 |
| 20260505211803 | 54 | 274 | 1.7 | 5.2 | 0.00 | 0.06 | 0.06 | 96 | 1008.1 |
| 20260505210903 | 55 | 272 | 2.6 | 5.2 | 0.00 | 0.06 | 0.06 | 95 | 1007.5 |
| 20260505210003 | 55 | 279 | 3.5 | 5.2 | 0.00 | 0.06 | 0.06 | 94 | 1007.6 |
| 20260505205403 | 55 | 283 | 3.5 | 5.2 | 0.00 | 0.06 | 0.06 | 94 | 1007.6 |
| 20260505204503 | 55 | 285 | 2.6 | 7.0 | 0.00 | 0.06 | 0.06 | 93 | 1007.5 |
| 20260505203603 | 55 | 270 | 4.3 | 7.8 | 0.00 | 0.06 | 0.06 | 92 | 1007.4 |
| 20260505202703 | 55 | 292 | 3.5 | 7.8 | 0.00 | 0.06 | 0.06 | 92 | 1007.4 |
| 20260505201803 | 56 | 289 | 4.3 | 7.8 | 0.00 | 0.06 | 0.06 | 92 | 1007.3 |
| 20260505200903 | 56 | 280 | 4.3 | 7.0 | 0.00 | 0.06 | 0.06 | 92 | 1007.3 |
| 20260505200003 | 56 | 291 | 3.5 | 7.0 | 0.00 | 0.06 | 0.06 | 92 | 1006.9 |
| 20260505195403 | 56 | 277 | 3.5 | 7.0 | 0.00 | 0.06 | 0.06 | 91 | 1006.8 |
| 20260505194503 | 56 | 279 | 3.5 | 6.1 | 0.00 | 0.06 | 0.06 | 92 | 1007.0 |
| 20260505193603 | 56 | 275 | 4.3 | 6.1 | 0.00 | 0.06 | 0.06 | 91 | 1006.9 |
| 20260505192703 | 56 | 274 | 2.6 | 6.1 | 0.00 | 0.06 | 0.06 | 90 | 1006.6 |
| 20260505191803 | 57 | 281 | 2.6 | 7.0 | 0.00 | 0.06 | 0.06 | 88 | 1006.7 |
| 20260505190903 | 57 | 283 | 3.5 | 7.0 | 0.00 | 0.06 | 0.06 | 88 | 1006.5 |
| 20260505190003 | 57 | 290 | 1.7 | 5.2 | 0.00 | 0.06 | 0.06 | 90 | 1006.1 |
| 20260505185403 | 57 | 286 | 3.5 | 5.2 | 0.00 | 0.06 | 0.06 | 92 | 1006.5 |
| 20260505184503 | 57 | 261 | 1.7 | 3.5 | 0.00 | 0.06 | 0.06 | 92 | 1006.3 |
| 20260505183603 | 57 | 257 | 0.0 | 3.5 | 0.00 | 0.06 | 0.06 | 92 | 1006.0 |
| 20260505182703 | 57 | 302 | 1.7 | 1.7 | 0.00 | 0.06 | 0.06 | 93 | 1006.2 |
| 20260505181803 | 57 | 273 | 0.9 | 3.5 | 0.00 | 0.06 | 0.06 | 94 | 1006.0 |
| 20260505180903 | 57 | 82 | 1.7 | 5.2 | 0.00 | 0.06 | 0.06 | 95 | 1006.0 |
| 20260505180003 | 57 | 271 | 0.9 | 3.5 | 0.00 | 0.06 | 0.06 | 95 | 1005.9 |
| 20260505175403 | 56 | 288 | 1.7 | 5.2 | 0.00 | 0.06 | 0.06 | 94 | 1005.6 |
| 20260505174503 | 56 | 280 | 3.5 | 7.0 | 0.00 | 0.06 | 0.06 | 95 | 1005.7 |
| 20260505173603 | 57 | 26 | 1.7 | 5.2 | 0.01 | 0.06 | 0.06 | 93 | 1005.5 |
| 20260505172703 | 57 | 324 | 2.6 | 6.1 | 0.04 | 0.06 | 0.06 | 94 | 1005.7 |
| 20260505171803 | 57 | 294 | 2.6 | 6.1 | 0.05 | 0.06 | 0.06 | 93 | 1005.7 |
| 20260505170903 | 57 | 320 | 2.6 | 6.1 | 0.06 | 0.06 | 0.06 | 92 | 1006.0 |
| 20260505170003 | 57 | 37 | 2.6 | 9.6 | 0.06 | 0.06 | 0.06 | 92 | 1005.7 |
| 20260505165403 | 57 | 18 | 3.5 | 9.6 | 0.06 | 0.06 | 0.06 | 92 | 1005.7 |
| 20260505164503 | 57 | 274 | 2.6 | 13.9 | 0.06 | 0.06 | 0.06 | 91 | 1005.4 |
| 20260505163603 | 58 | 287 | 8.7 | 13.0 | 0.05 | 0.05 | 0.05 | 86 | 1005.7 |
| 20260505162703 | 60 | 288 | 5.2 | 11.3 | 0.02 | 0.02 | 0.02 | 83 | 1006.2 |
| 20260505161803 | 61 | 292 | 4.3 | 11.3 | 0.01 | 0.01 | 0.01 | 78 | 1006.2 |
| 20260505160903 | 62 | 290 | 1.7 | 13.0 | 0.00 | 0.00 | 0.00 | 74 | 1006.2 |
| 20260505152703 | 74 | 265 | 1.7 | 3.5 | 0.00 | 0.00 | 0.00 | 38 | 1004.5 |
| 20260505151803 | 74 | 276 | 1.7 | 5.2 | 0.00 | 0.00 | 0.00 | 37 | 1004.4 |
| 20260505150903 | 76 | 259 | 0.9 | 1.7 | 0.00 | 0.00 | 0.00 | 36 | 1004.6 |
| 20260505124503 | 76 | 279 | 3.5 | 5.2 | 0.00 | 0.00 | 0.00 | 31 | 1005.8 |
| 20260505123603 | 76 | 291 | 3.5 | 6.1 | 0.00 | 0.00 | 0.00 | 32 | 1005.8 |
| 20260505122703 | 75 | 54 | 1.7 | 7.0 | 0.00 | 0.00 | 0.00 | 31 | 1005.8 |
| 20260505121803 | 76 | 331 | 1.7 | 5.2 | 0.00 | 0.00 | 0.00 | 29 | 1006.0 |
| 20260505120903 | 78 | 314 | 1.7 | 3.5 | 0.00 | 0.00 | 0.00 | 27 | 1006.2 |
| 20260505120004 | 78 | 312 | 1.7 | 7.0 | 0.00 | 0.00 | 0.00 | 29 | 1006.0 |
| 20260505115403 | 78 | 315 | 3.5 | 7.0 | 0.00 | 0.00 | 0.00 | 31 | 1006.0 |
| 20260505114503 | 78 | 311 | 1.7 | 3.5 | 0.00 | 0.00 | 0.00 | 32 | 1006.3 |
| 20260505113603 | 76 | 297 | 2.6 | 9.6 | 0.00 | 0.00 | 0.00 | 33 | 1006.2 |
| 20260505112703 | 77 | 275 | 1.7 | 5.2 | 0.00 | 0.00 | 0.00 | 34 | 1006.4 |
| 20260505111803 | 76 | 334 | 0.9 | 7.0 | 0.00 | 0.00 | 0.00 | 34 | 1006.5 |
| 20260505110903 | 75 | 282 | 5.2 | 7.0 | 0.00 | 0.00 | 0.00 | 35 | 1006.7 |
| 20260505101803 | 71 | 271 | 1.7 | 6.1 | 0.00 | 0.00 | 0.00 | 43 | 1007.3 |
| 20260505100903 | 74 | 272 | 0.9 | 6.1 | 0.00 | 0.00 | 0.00 | 42 | 1007.3 |
| 20260505100003 | 75 | 284 | 1.7 | 3.5 | 0.00 | 0.00 | 0.00 | 43 | 1007.4 |
| 20260505095403 | 73 | 279 | 2.6 | 3.5 | 0.00 | 0.00 | 0.00 | 45 | 1007.5 |
| 20260505094503 | 72 | 269 | 1.7 | 6.1 | 0.00 | 0.00 | 0.00 | 45 | 1007.7 |
| 20260505093603 | 72 | 282 | 1.7 | 6.1 | 0.00 | 0.00 | 0.00 | 48 | 1007.7 |
| 20260505092703 | 71 | 274 | 2.6 | 6.1 | 0.00 | 0.00 | 0.00 | 49 | 1007.6 |
| 20260505091803 | 71 | 279 | 0.9 | 3.5 | 0.00 | 0.00 | 0.00 | 50 | 1007.7 |
| 20260505090903 | 71 | 298 | 1.7 | 5.2 | 0.00 | 0.00 | 0.00 | 50 | 1007.8 |
| 20260505090003 | 70 | 301 | 2.6 | 3.5 | 0.00 | 0.00 | 0.00 | 52 | 1008.1 |
| 20260505085403 | 70 | 66 | 0.9 | 3.5 | 0.00 | 0.00 | 0.00 | 53 | 1007.9 |
| 20260505084503 | 68 | 79 | 0.0 | 5.2 | 0.00 | 0.00 | 0.00 | 55 | 1007.9 |
| 20260505083603 | 68 | 85 | 2.6 | 5.2 | 0.00 | 0.00 | 0.00 | 56 | 1008.0 |
| 20260505082703 | 66 | 45 | 2.6 | 6.1 | 0.00 | 0.00 | 0.00 | 57 | 1007.9 |
| 20260505081803 | 68 | 48 | 1.7 | 3.5 | 0.00 | 0.00 | 0.00 | 56 | 1007.9 |
| 20260505080903 | 67 | 65 | 1.7 | 3.5 | 0.00 | 0.00 | 0.00 | 59 | 1008.3 |
| 20260505080003 | 68 | 41 | 0.9 | 3.5 | 0.00 | 0.00 | 0.00 | 57 | 1008.1 |
| 20260505075403 | 66 | 31 | 1.7 | 5.2 | 0.00 | 0.00 | 0.00 | 60 | 1008.0 |
| 20260505074503 | 64 | 55 | 2.6 | 5.2 | 0.00 | 0.00 | 0.00 | 66 | 1008.4 |
| 20260505073603 | 65 | 20 | 0.9 | 3.5 | 0.00 | 0.00 | 0.00 | 64 | 1008.4 |
| 20260505072703 | 67 | 345 | 0.9 | 3.5 | 0.00 | 0.00 | 0.00 | 60 | 1008.6 |
| 20260505071803 | 65 | 279 | 0.9 | 3.5 | 0.00 | 0.00 | 0.00 | 65 | 1008.5 |
| 20260505070903 | 64 | 277 | 1.7 | 3.5 | 0.00 | 0.00 | 0.00 | 65 | 1008.5 |
| 20260505070004 | 65 | 278 | 1.7 | 3.5 | 0.00 | 0.00 | 0.00 | 63 | 1008.5 |
| 20260505065403 | 64 | 285 | 2.6 | 3.5 | 0.00 | 0.00 | 0.00 | 65 | 1008.6 |
| 20260505064503 | 65 | 283 | 0.0 | 3.5 | 0.00 | 0.00 | 0.00 | 63 | 1008.6 |
| 20260505063603 | 62 | 316 | 1.7 | 3.5 | 0.00 | 0.00 | 0.00 | 68 | 1008.5 |
| 20260505062703 | 64 | 6 | 0.0 | 1.7 | 0.00 | 0.00 | 0.00 | 64 | 1008.6 |
| 20260505061803 | 61 | 10 | 0.9 | 1.7 | 0.00 | 0.00 | 0.00 | 68 | 1008.8 |
| 20260505060903 | 62 | 306 | 0.9 | 1.7 | 0.00 | 0.00 | 0.00 | 66 | 1008.6 |
| 20260505060003 | 59 | 301 | 1.7 | 3.5 | 0.00 | 0.00 | 0.00 | 72 | 1008.6 |
| 20260505055403 | 60 | 323 | 1.7 | 1.7 | 0.00 | 0.00 | 0.00 | 70 | 1008.9 |
| 20260505054503 | 59 | 312 | 0.9 | 3.5 | 0.00 | 0.00 | 0.00 | 71 | 1008.6 |
| 20260505053603 | 58 | 300 | 1.7 | 5.2 | 0.00 | 0.00 | 0.00 | 73 | 1008.7 |
| 20260505052703 | 59 | 347 | 1.7 | 1.7 | 0.00 | 0.00 | 0.00 | 71 | 1008.5 |
| 20260505051803 | 59 | 355 | 0.0 | 3.5 | 0.00 | 0.00 | 0.00 | 69 | 1008.5 |
| 20260505050903 | 58 | 354 | 0.9 | 1.7 | 0.00 | 0.00 | 0.00 | 71 | 1008.6 |